{"data":{"norad_id":65969,"epoch":"2026-05-24T23:07:27.482592Z","epoch_age_seconds":88449,"freshness":"FRESH","line1":"1 65969U 25228Y   26144.96351253 -.00000463  00000+0 -31669-4 0  9998","line2":"2 65969  51.9017 358.3236 0000724 107.8815 252.2226 14.79932476 34878","mean_motion":14.79932476,"eccentricity":7.24e-5,"inclination_deg":51.9017,"raan_deg":358.3236,"arg_perigee_deg":107.8815,"mean_anomaly_deg":252.2226,"bstar":-3.1669e-5,"rev_number":3487,"period_min":97.301736623286,"perigee_km":629.02992769552,"apogee_km":630.04463893175,"semimajor_km":7007.6742833136,"source":"CELESTRAK","updated_at":"2026-05-25T13:38:05.874137Z"}}